DateTimeUTC,F1_A11,F1_S11,BsB_S11,BsG_S11,BsR_S11,BbsB_S11,BbsG_S11,BbsR_S11,BaB_A11,BaG_A11,BaR_A11,T_S11,U_S11,P_S11,T1_A11
2020-09-18T00:00:00Z,00000388,21000608,,,,,,,,,,23.4,00.0,0661.9,30.8
2020-09-18T00:01:00Z,00000388,21000608,,,,,,,,,,23.4,00.0,0661.9,30.8
2020-09-18T00:02:00Z,00000388,21000608,,,,,,,,,,23.4,00.0,0661.9,30.8
2020-09-18T00:03:00Z,00000388,61000608,,,,,,,,,,23.4,00.0,0661.9,30.8
2020-09-18T00:04:00Z,00000388,41000608,-000.42,0000.15,-000.30,0000.01,-000.16,-000.24,0000.10,0000.07,0000.06,23.1,00.0,0662.8,30.8
2020-09-18T00:05:00Z,00000388,01000608,-000.72,0000.15,-000.17,0000.07,-000.11,0000.22,0000.14,0000.13,0000.03,23.1,00.0,0662.9,30.8
2020-09-18T00:06:00Z,00000388,01000608,-000.19,0000.28,-000.03,0000.01,0000.18,0000.10,-000.07,-000.24,0000.07,23.1,00.0,0662.9,30.9
2020-09-18T00:07:00Z,00000388,01000608,0000.50,0000.53,0000.13,0000.47,0000.36,0000.25,0000.13,0000.18,-000.07,23.2,00.0,0662.9,30.9
2020-09-18T00:08:00Z,00000388,01000608,-000.34,0000.24,-000.27,0000.26,0000.00,-000.20,0000.08,0000.21,0000.17,23.2,00.0,0662.9,30.9
2020-09-18T00:09:00Z,00000388,01000608,-000.22,0000.02,-000.05,0000.70,-000.10,0000.25,0000.00,0000.03,-000.08,23.2,00.0,0662.9,30.9
2020-09-18T00:10:00Z,00000388,01000608,0001.04,0000.99,0000.56,0000.30,0000.20,0000.07,0000.11,0000.18,0000.07,23.2,00.0,0662.9,30.9
2020-09-18T00:11:00Z,00000388,01000608,0000.65,0000.07,0000.36,-000.23,0000.07,0000.13,0000.06,-000.07,0000.02,23.2,00.0,0662.9,30.9
2020-09-18T00:12:00Z,00000388,01000608,-000.68,0000.26,0000.17,0000.11,0000.29,-000.03,0000.14,0000.08,0000.00,23.1,00.0,0662.9,30.8
2020-09-18T00:13:00Z,00000388,01000608,-000.07,0000.52,0000.22,-000.96,0000.05,0000.13,-000.13,-000.00,0000.08,23.1,00.0,0662.9,30.8
2020-09-18T00:14:00Z,00000388,01000608,-000.04,0000.56,0000.16,-000.44,0000.17,-000.07,0000.08,0000.10,-000.10,23.1,00.0,0662.8,30.8
2020-09-18T00:15:00Z,00000388,01000608,-000.30,0000.17,0000.15,0000.38,0000.17,0000.29,0000.08,-000.06,0000.16,23.0,00.0,0662.9,30.8
2020-09-18T00:16:00Z,00000388,01000608,0000.08,0000.18,-000.21,0000.27,-000.07,-000.20,0000.12,0000.15,-000.09,23.0,00.0,0662.8,30.8
2020-09-18T00:17:00Z,00000388,01000608,0000.00,0000.01,0000.17,-000.67,0000.35,-000.32,0000.13,-000.08,0000.07,23.0,00.0,0662.8,30.8
2020-09-18T00:18:00Z,00000388,01000608,0000.33,0000.21,0000.05,-000.31,-000.03,0000.17,-000.03,-000.03,0000.04,23.0,00.0,0662.8,30.8
2020-09-18T00:19:00Z,00000388,01000608,-000.07,0000.08,0000.20,-000.80,-000.12,0000.25,-000.20,-000.00,0000.07,23.0,00.0,0662.8,30.8
2020-09-18T00:20:00Z,00000388,01000608,-000.25,-000.10,0000.46,0000.23,-000.09,0000.08,0000.18,-000.05,-000.21,23.0,00.0,0662.8,30.8
2020-09-18T00:21:00Z,00000388,01000608,-000.11,0000.40,-000.68,0000.28,0000.24,0000.05,-000.02,0000.12,0000.02,23.0,00.0,0662.8,30.9
2020-09-18T00:22:00Z,00000388,01000608,-000.81,0000.09,0000.13,-000.51,0000.34,-000.24,-000.01,0000.04,0000.26,23.1,00.0,0662.8,30.9
2020-09-18T00:23:00Z,00000388,01000608,-000.02,-000.14,0000.18,-000.17,0000.12,-000.11,0000.18,0000.06,-000.05,23.1,00.0,0662.8,30.9
2020-09-18T00:24:00Z,00000388,01000608,0000.18,0000.48,0000.37,0000.24,-000.01,0000.56,-000.03,0000.06,-000.05,23.1,00.0,0662.9,30.9
2020-09-18T00:25:00Z,00000388,01000608,0000.05,0000.07,0000.05,0000.45,0000.17,-000.19,0000.02,-000.10,-000.02,23.2,00.0,0662.9,30.9
2020-09-18T00:26:00Z,00000388,01000608,-000.41,0000.64,0000.27,0000.29,-000.23,0000.41,-000.01,0000.11,0000.01,23.2,00.0,0662.8,30.9
2020-09-18T00:27:00Z,00000388,01000608,0000.94,-000.09,0000.19,-000.58,-000.20,0000.40,-000.08,-000.14,0000.06,23.2,00.0,0662.8,30.9
2020-09-18T00:28:00Z,00000388,01000608,-000.34,0000.47,-000.01,0000.19,-000.19,-000.05,0000.04,0000.09,-000.18,23.1,00.0,0662.8,30.9
2020-09-18T00:29:00Z,00000388,01000608,0000.06,0000.27,0000.10,-000.02,0000.54,0000.20,0000.01,0000.02,0000.11,23.1,00.0,0662.8,30.8
2020-09-18T00:30:00Z,00000388,01000608,0000.26,-000.21,-000.07,0000.77,0000.13,-000.02,0000.12,0000.03,-000.02,23.1,00.0,0662.8,30.8
2020-09-18T00:31:00Z,00000388,01000608,0000.51,0000.40,-000.06,0000.95,0000.16,-000.25,-000.14,-000.00,0000.07,23.1,00.0,0662.8,30.8
2020-09-18T00:32:00Z,00000388,01000608,-000.69,0000.28,0000.26,-000.16,-000.03,0000.01,0000.31,0000.08,0000.18,23.1,00.0,0662.8,30.8
2020-09-18T00:33:00Z,00000388,01000608,0000.08,0000.24,-000.01,0000.95,0000.25,-000.39,-000.04,-000.08,-000.04,23.0,00.0,0662.8,30.8
2020-09-18T00:34:00Z,00000388,01000608,-000.09,0000.38,-000.46,-000.30,-000.10,0000.19,0000.13,0000.12,-000.02,23.0,00.0,0662.8,30.8
2020-09-18T00:35:00Z,00000388,01000608,-000.17,0000.46,0000.09,0000.29,0000.26,0000.03,0000.17,0000.06,0000.11,23.1,00.0,0662.8,30.9
2020-09-18T00:36:00Z,00000388,01000608,0000.49,0000.32,0000.25,0000.12,0000.36,0000.14,0000.01,0000.17,0000.04,23.1,00.0,0662.8,30.9
2020-09-18T00:37:00Z,00000388,01000608,-000.46,0000.28,0000.13,0000.57,0000.03,0000.25,-000.11,-000.07,-000.00,23.1,00.0,0662.8,30.9
2020-09-18T00:38:00Z,00000388,01000608,-000.38,0000.01,0000.00,-000.00,-000.20,0000.04,0000.17,-000.12,0000.04,23.2,00.0,0662.8,30.9
2020-09-18T00:39:00Z,00000388,01000608,0000.27,0000.06,0000.19,0000.02,0000.30,-000.06,-000.04,-000.06,0000.17,23.2,00.0,0662.8,30.9
2020-09-18T00:40:00Z,00000388,01000608,-000.21,0000.44,0000.18,0000.45,0000.03,0000.27,0000.12,0000.40,-000.03,23.2,00.0,0662.8,30.9
2020-09-18T00:41:00Z,00000388,01000608,0001.01,-000.15,0000.22,0000.63,0000.10,0000.18,-000.04,0000.10,-000.03,23.2,00.0,0662.8,30.9
2020-09-18T00:42:00Z,00000388,01000608,0000.95,0000.51,0000.21,0000.09,-000.14,-000.13,-000.02,-000.04,0000.04,23.2,00.0,0662.7,30.9
2020-09-18T00:43:00Z,00000388,01000608,0000.60,0000.05,0000.10,-000.42,-000.39,0000.33,0000.09,-000.07,-000.01,23.1,00.0,0662.7,30.8
2020-09-18T00:44:00Z,00000388,01000608,-000.01,0000.62,0000.48,0000.69,0000.05,-000.11,0000.06,0000.12,0000.03,23.1,00.0,0662.7,30.8
2020-09-18T00:45:00Z,00000388,01000608,0000.13,-000.05,0000.30,-000.06,0000.31,-000.24,0000.00,0000.13,-000.03,23.1,00.0,0662.7,30.8
2020-09-18T00:46:00Z,00000388,01000608,-001.33,0000.35,0000.34,0000.41,0000.20,-000.00,-000.03,-000.09,-000.02,23.1,00.0,0662.7,30.8
2020-09-18T00:47:00Z,00000388,01000608,0001.50,0000.08,0000.17,-000.02,-000.18,-000.18,0000.16,-000.13,0000.10,23.1,00.0,0662.7,30.8
2020-09-18T00:48:00Z,00000388,01000608,-001.20,0000.26,0000.55,0000.61,0000.00,0000.20,-000.03,-000.05,-000.07,23.0,00.0,0662.7,30.8
2020-09-18T00:49:00Z,00000388,01000608,0000.68,-000.05,0000.14,-000.11,0000.33,-000.08,-000.03,0000.14,0000.01,23.0,00.0,0662.7,30.8
2020-09-18T00:50:00Z,00000388,01000608,0000.14,0000.40,0000.31,0000.37,0000.23,0000.02,0000.00,0000.03,-000.03,23.1,00.0,0662.7,30.9
2020-09-18T00:51:00Z,00000388,01000608,0000.06,0000.40,0000.18,-000.12,0000.22,-000.06,-000.13,0000.00,0000.16,23.1,00.0,0662.8,30.9
2020-09-18T00:52:00Z,00000388,01000608,0000.57,0000.74,-000.12,-000.55,-000.12,0000.19,0000.08,-000.14,-000.23,23.2,00.0,0662.8,30.9
2020-09-18T00:53:00Z,00000388,01000608,0000.40,0000.57,0000.77,-000.46,-000.06,0000.10,0000.02,0000.10,0000.09,23.2,00.0,0662.8,30.9
2020-09-18T00:54:00Z,00000388,01000608,-001.12,0000.17,0000.09,0000.41,-000.18,0000.26,-000.07,-000.05,0000.02,23.2,00.0,0662.8,30.9
2020-09-18T00:55:00Z,00000388,01000608,-000.10,0000.12,0000.13,-000.24,-000.18,0000.24,-000.03,0000.04,-000.11,23.3,00.0,0662.7,30.9
2020-09-18T00:56:00Z,00000388,01000608,0001.60,0000.38,0000.05,0000.66,0000.21,0000.25,0000.07,0000.08,0000.06,23.2,00.0,0662.7,30.9
2020-09-18T00:57:00Z,00000388,41000608,,,,,,,,,,23.2,00.0,0662.6,30.8
2020-09-18T00:58:00Z,00000388,61000608,,,,,,,,,,23.3,00.0,0661.7,30.8
2020-09-18T00:59:00Z,00000388,21000608,,,,,,,,,,23.4,00.0,0661.7,30.8
2020-09-18T01:00:00Z,00000388,21000608,,,,,,,,,,23.4,00.0,0661.7,30.8
2020-09-18T01:01:00Z,00000388,21000608,,,,,,,,,,23.4,00.0,0661.8,30.8
2020-09-18T01:02:00Z,00000388,21000608,,,,,,,,,,23.4,00.0,0661.8,30.8
2020-09-18T01:03:00Z,00000388,61000608,,,,,,,,,,23.4,00.0,0661.8,30.8
2020-09-18T01:04:00Z,00000388,41000608,-000.49,0000.02,0000.77,0000.19,0000.23,-000.13,-000.09,0000.02,-000.03,23.2,00.0,0662.7,30.8
2020-09-18T01:05:00Z,00000388,01000608,0000.99,0000.10,0000.08,0001.31,0000.55,-000.12,-000.00,-000.10,-000.06,23.2,00.0,0662.8,30.9
2020-09-18T01:06:00Z,00000388,01000608,-001.46,0000.51,0000.11,0000.36,0000.26,-000.20,0000.04,0000.20,0000.06,23.2,00.0,0662.8,30.9
2020-09-18T01:07:00Z,00000388,01000608,0000.62,0000.01,-000.18,0000.08,0000.15,0000.06,0000.03,-000.09,0000.02,23.2,00.0,0662.8,30.9
2020-09-18T01:08:00Z,00000388,01000608,-000.70,0000.13,-000.17,-000.49,0000.25,0000.38,-000.02,0000.11,0000.04,23.3,00.0,0662.8,30.9
2020-09-18T01:09:00Z,00000388,01000608,0000.43,-000.06,-000.40,0000.44,0000.34,0000.10,0000.12,-000.07,-000.04,23.3,00.0,0662.7,30.9
2020-09-18T01:10:00Z,00000388,01000608,-000.13,-000.01,0000.03,0000.05,0000.19,-000.07,0000.09,0000.21,0000.17,23.3,00.0,0662.7,30.9
2020-09-18T01:11:00Z,00000388,01000608,-000.46,-000.16,0000.03,0000.54,0000.37,-000.12,0000.04,0000.03,-000.01,23.2,00.0,0662.7,30.8
2020-09-18T01:12:00Z,00000388,01000608,-000.18,-000.32,0000.47,-000.10,0000.17,-000.17,0000.02,-000.01,-000.08,23.2,00.0,0662.7,30.8
2020-09-18T01:13:00Z,00000388,01000608,-000.22,-000.18,0000.55,0000.27,0000.41,-000.07,-000.02,-000.01,0000.07,23.2,00.0,0662.7,30.8
2020-09-18T01:14:00Z,00000388,01000608,-000.12,-000.39,-000.11,-000.24,0000.07,0000.01,0000.08,0000.18,0000.13,23.2,00.0,0662.6,30.8
2020-09-18T01:15:00Z,00000388,01000608,-000.87,-000.26,0000.10,-000.22,0000.39,-000.24,0000.15,-000.27,-000.03,23.1,00.0,0662.6,30.8
2020-09-18T01:16:00Z,00000388,01000608,-000.25,0000.26,0000.08,-000.33,0000.52,-000.26,-000.19,0000.18,-000.04,23.1,00.0,0662.6,30.8
2020-09-18T01:17:00Z,00000388,01000608,-000.32,-000.42,0000.25,0000.80,0000.18,-000.51,0000.09,-000.19,0000.15,23.1,00.0,0662.6,30.8
2020-09-18T01:18:00Z,00000388,01000608,0000.17,0000.19,-000.16,-000.51,0000.10,-000.16,-000.05,-000.10,-000.33,23.1,00.0,0662.6,30.8
2020-09-18T01:19:00Z,00000388,01000608,-000.89,0000.18,0000.25,-000.20,0000.26,0000.11,0000.02,0000.07,0000.07,23.1,00.0,0662.6,30.8
2020-09-18T01:20:00Z,00000388,01000608,0000.18,0000.07,0000.16,0000.35,0000.29,-000.54,-000.05,0000.11,0000.01,23.1,00.0,0662.7,30.8
2020-09-18T01:21:00Z,00000388,01000608,0000.24,-000.08,0000.43,-000.61,0000.08,0000.06,0000.03,-000.13,0000.05,23.1,00.0,0662.7,30.9
2020-09-18T01:22:00Z,00000388,01000608,-000.04,0000.23,-000.16,-000.53,0000.06,0000.10,-000.04,0000.09,-000.12,23.2,00.0,0662.7,30.9
2020-09-18T01:23:00Z,00000388,01000608,0000.36,0000.01,-000.13,0000.74,-000.07,-000.36,-000.12,0000.03,0000.02,23.2,00.0,0662.7,30.9
2020-09-18T01:24:00Z,00000388,01000608,0000.73,0000.45,0000.10,0000.01,-000.09,0000.06,0000.14,-000.08,0000.06,23.3,00.0,0662.7,30.9
2020-09-18T01:25:00Z,00000388,01000608,0000.50,-000.44,0000.19,0000.43,0000.13,0000.04,-000.30,-000.14,-000.15,23.3,00.0,0662.7,30.9
2020-09-18T01:26:00Z,00000388,01000608,-000.01,0000.08,-000.06,0000.11,-000.09,-000.62,0000.28,0000.17,0000.19,23.3,00.0,0662.7,30.9
2020-09-18T01:27:00Z,00000388,01000608,-000.02,0000.96,-000.06,-000.00,0000.08,0000.03,-000.00,0000.05,-000.02,23.3,00.0,0662.7,30.9
2020-09-18T01:28:00Z,00000388,01000608,-000.50,0000.56,0000.26,0000.21,0000.33,-000.06,0000.06,-000.01,-000.01,23.3,00.0,0662.7,30.9
2020-09-18T01:29:00Z,00000388,01000608,-000.48,-000.05,0000.04,0000.78,0000.19,-000.29,-000.08,0000.03,0000.04,23.2,00.0,0662.6,30.8
2020-09-18T01:30:00Z,00000388,01000608,-000.10,0000.43,0000.05,-000.03,0000.40,-000.01,-000.13,-000.06,-000.06,23.2,00.0,0662.6,30.8
2020-09-18T01:31:00Z,00000388,01000608,0000.86,0000.03,0000.24,0000.57,-000.10,-000.13,0000.09,0000.04,0000.01,23.2,00.0,0662.6,30.8
2020-09-18T01:32:00Z,00000388,01000608,-000.64,-000.11,0000.37,-000.55,0000.28,-000.16,-000.05,-000.19,-000.19,23.2,00.0,0662.6,30.8
2020-09-18T01:33:00Z,00000388,01000608,0000.46,0000.52,-000.03,-000.04,0000.37,-000.26,-000.11,-000.09,-000.03,23.1,00.0,0662.6,30.8
2020-09-18T01:34:00Z,00000388,01000608,0000.20,0000.89,0000.03,-000.47,-000.16,-000.05,0000.03,-000.05,-000.03,23.2,00.0,0662.6,30.8
2020-09-18T01:35:00Z,00000388,01000608,-000.29,-000.08,-000.10,-000.17,0000.35,0000.14,-000.10,-000.03,0000.01,23.2,00.0,0662.7,30.9
2020-09-18T01:36:00Z,00000388,01000608,0000.44,-000.13,0000.24,0000.71,0000.10,0000.16,-000.10,-000.06,-000.02,23.2,00.0,0662.7,30.9
2020-09-18T01:37:00Z,00000388,01000608,0000.08,0000.22,0000.27,0000.72,0000.01,0000.21,0000.08,0000.14,-000.02,23.3,00.0,0662.7,30.9
2020-09-18T01:38:00Z,00000388,01000608,-000.78,-000.38,-000.10,0000.07,0000.40,-000.33,-000.18,-000.17,0000.01,23.3,00.0,0662.6,30.9
2020-09-18T01:39:00Z,00000388,01000608,-000.31,0000.14,0000.24,-000.30,0000.32,-000.06,0000.13,0000.10,-000.11,23.3,00.0,0662.6,30.9
2020-09-18T01:40:00Z,00000388,01000608,0000.43,0000.39,0000.41,0000.50,-000.01,0000.00,0000.08,0000.07,0000.08,23.3,00.0,0662.6,30.9
2020-09-18T01:41:00Z,00000388,01000608,-000.19,-000.38,0000.14,0000.56,0000.17,-000.15,-000.02,-000.06,0000.08,23.3,00.0,0662.6,30.8
2020-09-18T01:42:00Z,00000388,01000608,-000.04,0000.15,-000.01,0000.66,0000.06,0000.10,0000.02,0000.07,-000.07,23.2,00.0,0662.6,30.8
2020-09-18T01:43:00Z,00000388,01000608,0000.74,-000.49,0000.65,0000.61,0000.27,-000.12,0000.05,0000.09,0000.10,23.2,00.0,0662.5,30.8
2020-09-18T01:44:00Z,00000388,01000608,-000.27,0000.40,-000.42,-000.03,-000.04,-000.22,-000.00,0000.03,-000.12,23.2,00.0,0662.5,30.8
2020-09-18T01:45:00Z,00000388,01000608,-001.50,0000.73,0000.28,0000.95,0000.05,0000.08,0000.05,0000.06,0000.05,23.1,00.0,0662.5,30.8
2020-09-18T01:46:00Z,00000388,01000608,0000.55,-000.17,0000.41,0000.52,-000.05,0000.21,0000.14,-000.13,0000.08,23.1,00.0,0662.5,30.8
2020-09-18T01:47:00Z,00000388,01000608,-000.69,-000.19,0000.50,0000.23,0000.09,-000.04,0000.04,0000.01,0000.03,23.1,00.0,0662.5,30.8
2020-09-18T01:48:00Z,00000388,01000608,-001.12,-000.24,-000.08,-000.05,0000.28,-000.12,-000.12,-000.23,0000.09,23.1,00.0,0662.5,30.8
2020-09-18T01:49:00Z,00000388,01000608,-000.42,-000.11,0000.32,0000.79,-000.07,-000.23,0000.06,0000.19,0000.02,23.1,00.0,0662.5,30.8
2020-09-18T01:50:00Z,00000388,01000608,0000.52,0000.38,0000.48,0000.45,0000.25,-000.09,-000.04,0000.02,0000.00,23.1,00.0,0662.5,30.8
2020-09-18T01:51:00Z,00000388,01000608,-000.11,0000.26,0000.39,-000.02,0000.22,-000.38,0000.07,0000.09,-000.07,23.1,00.0,0662.5,30.9
2020-09-18T01:52:00Z,00000388,01000608,-001.51,-000.07,0000.16,0000.36,0000.24,-000.19,0000.03,-000.05,0000.03,23.2,00.0,0662.5,30.9
2020-09-18T01:53:00Z,00000388,01000608,0001.99,0001.00,0000.46,0000.03,0000.25,-000.26,0001.80,0001.87,0001.20,23.2,00.0,0662.5,30.9
2020-09-18T01:54:00Z,00000388,01000608,0001.62,0000.73,0000.32,0000.42,0000.60,0000.02,0005.39,0004.60,0003.61,23.3,00.0,0662.5,30.9
2020-09-18T01:55:00Z,00000388,01000608,0001.84,0001.60,0000.96,0000.19,0000.80,0000.18,0010.68,0009.59,0007.14,23.3,00.0,0662.5,30.9
2020-09-18T01:56:00Z,00000388,01000608,0001.99,0001.34,0000.69,0001.36,0000.45,0000.23,0012.07,0010.99,0008.11,23.4,00.0,0662.5,30.9
2020-09-18T01:57:00Z,00000388,41000608,,,,,,,,,,23.4,00.0,0662.5,30.9
2020-09-18T01:58:00Z,00000388,61000608,,,,,,,,,,23.4,00.0,0661.5,30.9
2020-09-18T01:59:00Z,00000388,21000608,,,,,,,,,,23.5,00.0,0661.5,30.8
2020-09-18T02:00:00Z,00000388,21000608,,,,,,,,,,23.5,00.0,0661.5,30.8
2020-09-18T02:01:00Z,00000388,21000608,,,,,,,,,,23.5,00.0,0661.5,30.8
2020-09-18T02:02:00Z,00000388,21000608,,,,,,,,,,23.5,00.0,0661.5,30.8
2020-09-18T02:03:00Z,00000388,61000608,,,,,,,,,,23.5,00.0,0661.5,30.8
2020-09-18T02:04:00Z,00000388,41000608,0002.12,0000.48,0000.45,0001.02,-000.01,0000.35,0007.62,0006.98,0005.17,23.3,00.0,0662.4,30.8
2020-09-18T02:05:00Z,00000388,01000608,0001.88,0001.54,0000.71,0000.89,0000.36,-000.01,0010.31,0009.24,0006.80,23.3,00.0,0662.5,30.9
2020-09-18T02:06:00Z,00000388,01000608,0001.55,0001.02,0000.69,0001.08,0000.02,0000.22,0009.31,0008.57,0006.30,23.3,00.0,0662.5,30.9
2020-09-18T02:07:00Z,00000388,01000608,0002.06,0001.34,0000.81,0000.84,0000.89,-000.03,0012.97,0011.57,0008.56,23.4,00.0,0662.4,30.9
2020-09-18T02:08:00Z,00000388,01000608,0000.95,0001.61,0000.74,0000.62,-000.08,0000.35,0013.08,0011.64,0008.86,23.4,00.0,0662.4,30.9
2020-09-18T02:09:00Z,00000388,01000608,0001.17,0000.50,0000.33,0000.47,0000.30,0000.15,0007.65,0006.93,0004.98,23.4,00.0,0662.4,30.9
2020-09-18T02:10:00Z,00000388,01000608,0002.96,0001.78,0000.43,0000.84,0000.72,0000.30,0012.04,0010.90,0008.15,23.4,00.0,0662.4,30.9
2020-09-18T02:11:00Z,00000388,01000608,0003.54,0001.34,0000.89,0000.61,0000.76,0000.47,0015.92,0014.18,0010.74,23.3,00.0,0662.4,30.9
2020-09-18T02:12:00Z,00000388,01000608,0001.50,0000.72,0000.08,0000.37,-000.08,0000.03,0009.25,0008.29,0006.13,23.3,00.0,0662.4,30.8
2020-09-18T02:13:00Z,00000388,01000608,0001.59,0000.89,0000.98,0000.42,-000.20,0000.51,0007.60,0006.85,0005.04,23.3,00.0,0662.4,30.8
2020-09-18T02:14:00Z,00000388,01000608,0001.25,0000.67,0000.02,0000.33,0000.47,0000.23,0006.91,0006.11,0004.65,23.2,00.0,0662.4,30.8
2020-09-18T02:15:00Z,00000388,01000608,0000.86,0000.76,0000.08,0000.99,0000.30,-000.08,0006.36,0005.85,0004.14,23.2,00.0,0662.4,30.8
2020-09-18T02:16:00Z,00000388,01000608,0001.85,0001.07,0000.59,0000.46,0000.41,0000.09,0007.68,0006.88,0005.30,23.2,00.0,0662.3,30.8
2020-09-18T02:17:00Z,00000388,01000608,0000.64,0000.49,0000.55,-000.48,0000.65,0000.33,0006.66,0005.68,0004.32,23.2,00.0,0662.3,30.8
2020-09-18T02:18:00Z,00000388,01000608,-000.70,-000.38,0000.08,-000.04,-000.06,0000.26,-000.01,0000.21,0000.16,23.1,00.0,0662.3,30.8
2020-09-18T02:19:00Z,00000388,01000608,0000.13,-000.11,0000.09,-000.54,-000.20,-000.26,0000.11,0000.16,0000.08,23.2,00.0,0662.3,30.8
2020-09-18T02:20:00Z,00000388,01000608,-000.46,0000.29,-000.80,-000.06,-000.03,-000.17,0000.17,-000.10,-000.05,23.2,00.0,0662.4,30.9
2020-09-18T02:21:00Z,00000388,01000608,0001.32,0000.69,-000.21,0000.87,0000.01,0000.20,-000.16,0000.02,0000.06,23.2,00.0,0662.4,30.9
2020-09-18T02:22:00Z,00000388,01000608,-000.04,-000.34,-000.13,0000.52,-000.04,0000.34,-000.07,-000.03,-000.09,23.3,00.0,0662.4,30.9
2020-09-18T02:23:00Z,00000388,01000608,0000.24,0000.19,-000.35,0000.25,-000.07,0000.08,-000.03,-000.07,-000.04,23.3,00.0,0662.4,30.9
2020-09-18T02:24:00Z,00000388,01000608,-000.85,-000.03,0000.18,0001.12,-000.02,0000.18,0000.25,0000.11,0000.08,23.3,00.0,0662.3,30.9
2020-09-18T02:25:00Z,00000388,01000608,-001.15,0000.09,0000.52,-000.42,-000.26,0000.02,-000.19,0000.13,0000.05,23.3,00.0,0662.3,30.9
2020-09-18T02:26:00Z,00000388,01000608,-000.74,-000.32,0000.43,0000.57,0000.18,-000.07,0000.08,0000.01,-000.03,23.3,00.0,0662.3,30.9
2020-09-18T02:27:00Z,00000388,01000608,-000.08,-000.47,-000.14,0000.34,-000.34,0000.25,-000.01,0000.01,-000.03,23.3,00.0,0662.3,30.9
2020-09-18T02:28:00Z,00000388,01000608,-000.32,-000.65,-000.04,0000.19,0000.48,0000.13,-000.08,-000.04,0000.02,23.3,00.0,0662.3,30.8
2020-09-18T02:29:00Z,00000388,01000608,0000.27,-000.16,-000.34,0000.42,0000.01,-000.13,0000.15,-000.05,-000.20,23.2,00.0,0662.3,30.8
2020-09-18T02:30:00Z,00000388,01000608,0000.05,0000.16,-000.09,-000.34,-000.14,0000.29,0000.03,0000.07,0000.26,23.2,00.0,0662.3,30.8
2020-09-18T02:31:00Z,00000388,01000608,-000.03,0000.41,0000.10,-000.17,-000.11,0000.30,0001.11,0001.11,0000.84,23.2,00.0,0662.3,30.8
2020-09-18T02:32:00Z,00000388,01000608,-000.05,0000.11,0000.40,-000.09,0000.24,-000.10,0000.03,-000.19,-000.04,23.2,00.0,0662.3,30.8
2020-09-18T02:33:00Z,00000388,01000608,-000.52,0000.09,0000.15,0000.06,-000.24,0000.00,0000.10,0000.09,-000.10,23.2,00.0,0662.3,30.8
2020-09-18T02:34:00Z,00000388,01000608,-000.86,-000.08,0000.86,0000.43,0000.29,0000.21,-000.13,0000.10,-000.02,23.2,00.0,0662.3,30.8
2020-09-18T02:35:00Z,00000388,01000608,0000.62,0000.26,-000.11,0000.00,0000.41,-000.15,0000.02,-000.08,0000.06,23.2,00.0,0662.3,30.9
2020-09-18T02:36:00Z,00000388,01000608,-000.43,0000.21,-000.19,-000.02,0000.06,0000.32,-000.15,-000.13,-000.12,23.2,00.0,0662.3,30.9
2020-09-18T02:37:00Z,00000388,01000608,-000.56,0000.12,-000.14,-000.72,0000.05,0000.10,0000.09,-000.04,0000.13,23.3,00.0,0662.3,30.9
2020-09-18T02:38:00Z,00000388,01000608,-000.29,0000.34,-000.13,-000.31,0000.18,-000.13,0000.06,0000.06,-000.18,23.3,00.0,0662.3,30.9
2020-09-18T02:39:00Z,00000388,01000608,0000.45,0000.07,0000.28,0000.28,-000.23,0000.39,-000.14,-000.13,0000.09,23.3,00.0,0662.3,30.9
2020-09-18T02:40:00Z,00000388,01000608,0000.50,-000.21,-000.24,0001.03,-000.38,-000.31,0000.33,0000.30,0000.06,23.3,00.0,0662.3,30.9
2020-09-18T02:41:00Z,00000388,01000608,-000.46,0000.16,-000.30,0000.25,0000.07,0000.20,-000.13,0000.07,0000.16,23.3,00.0,0662.3,30.9
2020-09-18T02:42:00Z,00000388,01000608,0000.58,0000.21,0000.07,0000.51,0000.17,0000.22,0000.17,-000.01,-000.11,23.3,00.0,0662.3,30.9
2020-09-18T02:43:00Z,00000388,01000608,0000.60,-000.07,-000.08,0000.62,0000.07,0000.06,0000.05,-000.01,0000.14,23.2,00.0,0662.3,30.8
2020-09-18T02:44:00Z,00000388,01000608,-000.27,-000.19,0000.07,-000.77,-000.10,0000.17,0000.09,0000.25,0000.09,23.2,00.0,0662.3,30.8
2020-09-18T02:45:00Z,00000388,01000608,0001.60,-000.20,-000.26,0000.91,0000.17,0000.10,0000.06,-000.01,-000.11,23.2,00.0,0662.3,30.8
2020-09-18T02:46:00Z,00000388,01000608,0001.46,-000.20,0000.01,-000.27,-000.02,0000.56,-000.12,-000.10,0000.05,23.2,00.0,0662.3,30.8
2020-09-18T02:47:00Z,00000388,01000608,-000.16,-000.15,-000.14,-000.27,-000.19,0000.09,-000.12,-000.08,-000.11,23.1,00.0,0662.2,30.8
2020-09-18T02:48:00Z,00000388,01000608,-000.69,-000.17,0000.16,-000.21,0000.46,0000.32,0000.25,0000.01,-000.03,23.1,00.0,0662.2,30.8
2020-09-18T02:49:00Z,00000388,01000608,0000.28,-000.07,-000.31,0000.97,-000.05,0000.50,-000.17,0000.08,0000.14,23.1,00.0,0662.3,30.8
2020-09-18T02:50:00Z,00000388,01000608,-000.09,0000.23,0000.21,0000.83,0000.11,0000.12,0000.08,-000.14,-000.10,23.1,00.0,0662.3,30.9
2020-09-18T02:51:00Z,00000388,01000608,-000.85,-000.39,-000.55,0000.02,-000.23,-000.09,-000.08,0000.03,0000.06,23.2,00.0,0662.3,30.9
2020-09-18T02:52:00Z,00000388,01000608,-000.72,-000.01,-000.10,0000.33,0000.11,0000.41,0000.05,0000.01,-000.10,23.3,00.0,0662.3,30.9
2020-09-18T02:53:00Z,00000388,01000608,0001.25,0000.17,0000.43,0000.24,-000.16,0000.03,-000.14,0000.06,0000.03,23.3,00.0,0662.3,30.9
2020-09-18T02:54:00Z,00000388,01000608,-000.19,-000.21,-000.33,0000.14,0000.11,-000.05,0000.07,-000.14,0000.02,23.3,00.0,0662.3,30.9
2020-09-18T02:55:00Z,00000388,01000608,0000.36,-000.18,0000.23,-000.13,0000.15,-000.11,-000.20,0000.00,-000.06,23.4,00.0,0662.2,30.9
2020-09-18T02:56:00Z,00000388,01000608,0000.90,0000.15,-000.18,0000.91,-000.28,0000.01,0000.16,0000.27,0000.02,23.4,00.0,0662.2,30.9
2020-09-18T02:57:00Z,00000388,41000608,,,,,,,,,,23.4,00.0,0662.2,30.9
2020-09-18T02:58:00Z,00000388,61000608,,,,,,,,,,23.4,00.0,0661.3,30.8
2020-09-18T02:59:00Z,00000388,21000608,,,,,,,,,,23.5,00.0,0661.3,30.8
2020-09-18T03:00:00Z,00000388,21000608,,,,,,,,,,23.5,00.0,0661.2,30.8
2020-09-18T03:01:00Z,00000388,21000608,,,,,,,,,,23.5,00.0,0661.2,30.8
2020-09-18T03:02:00Z,00000388,21000608,,,,,,,,,,23.5,00.0,0661.2,30.8
2020-09-18T03:03:00Z,00000388,61000608,,,,,,,,,,23.5,00.0,0661.2,30.8
2020-09-18T03:04:00Z,00000388,41000608,0000.20,0000.07,0000.55,0000.57,-000.28,0000.19,-000.01,-000.20,-000.20,23.3,00.0,0662.1,30.8
2020-09-18T03:05:00Z,00000388,01000608,0000.29,0000.20,-000.23,0001.30,0000.00,0000.02,-000.02,0000.22,-000.01,23.3,00.0,0662.2,30.8
2020-09-18T03:06:00Z,00000388,01000608,-000.07,0000.01,0000.30,0000.53,0000.02,-000.17,-000.04,0000.08,0000.02,23.3,00.0,0662.2,30.9
2020-09-18T03:07:00Z,00000388,01000608,0000.40,0000.65,0000.14,0001.68,0000.35,0000.08,-000.12,-000.28,0000.06,23.3,00.0,0662.2,30.9
2020-09-18T03:08:00Z,00000388,01000608,0000.29,-000.18,0000.40,0000.73,-000.08,-000.71,0000.07,0000.23,-000.10,23.4,00.0,0662.2,30.9
2020-09-18T03:09:00Z,00000388,01000608,0000.80,0000.12,0000.14,0000.70,0000.08,-000.28,-000.05,-000.24,-000.04,23.4,00.0,0662.1,30.9
2020-09-18T03:10:00Z,00000388,01000608,0000.35,-000.21,0000.37,0000.22,-000.22,0000.24,0000.03,0000.21,0000.22,23.3,00.0,0662.1,30.9